Home > Weather > Råholt > Past weeks

Flag for Norway Past Weather in Råholt, Norway — Yesterday and Last 2 Weeks

Now
52 °F

Broken clouds.


Feels Like: 52 °F
Forecast: 52 / 57 °F
Wind: 1 mph from North

Location: Oslo Gardermoen Airport

Current Time: Jun 29, 2016 at 7:29:20 AM

Latest Report: Jun 29, 2016 at 6:20 AM


Visibility: N/A

Pressure: 29.86 "Hg

Humidity: 88%

Dew Point: 48 °F

Location of RåholtLocation

Past Weather in Råholt — Graph

°F

Råholt Temperature Yesterday

Maximum temperature yesterday: 70 °F (at 2:50 PM)
Minimum temperature yesterday: 54 °F (at 3:50 AM)
Average temperature yesterday: 61 °F

High & Low Weather Summary for the Past Weeks

 TemperatureHumidityPressure
High75 °F (Jun 25, 3:20 PM)94% (Jun 15, 6:50 PM)30.15 "Hg (Jun 15, 6:50 PM)
Low46 °F (Jun 14, 5:20 AM)12% (Jun 14, 7:20 PM)29.56 "Hg (Jun 16, 5:20 PM)
Average60 °F69%29.81 "Hg
* Reported Jun 14 5:20 AM — Jun 29 5:50 AM, Råholt, Weather by CustomWeather, © 2016

Note: Actual official high and low records may vary slightly from our data, if they occured in-between our weather recording intervals... More about our weather records

Advertising

Råholt Weather History for the Previous 24 Hours

Scroll right to see more
 ConditionsComfort  
Time TempWeatherWind HumidityBarometerVisibility
5:50 AM
Wed, Jun 29
50 °FBroken clouds.3 mph94%29.86 "HgN/A
5:20 AM50 °FPartly sunny.No wind94%29.86 "HgN/A
4:50 AM50 °FPassing clouds.No wind94%29.86 "HgN/A
4:20 AM52 °FPassing clouds.No wind88%29.83 "HgN/A
3:50 AM52 °FPassing clouds.No wind88%29.86 "HgN/A
3:20 AM50 °FPassing clouds.No wind88%29.86 "HgN/A
2:50 AM52 °FClear.5 mph88%29.86 "Hg10 mi
2:20 AM54 °FClear.5 mph82%29.83 "Hg10 mi
1:50 AM52 °FClear.5 mph88%29.86 "Hg10 mi
1:20 AM52 °FClear.6 mph82%29.83 "Hg10 mi
12:50 AM54 °FClear.6 mph77%29.83 "Hg10 mi
12:20 AM54 °FClear.8 mph77%29.83 "Hg10 mi
11:50 PM
Tue, Jun 28
55 °FClear.9 mph72%29.83 "Hg10 mi
11:20 PM55 °FSunny.9 mph72%29.83 "Hg10 mi
10:50 PM57 °FSunny.9 mph67%29.83 "Hg10 mi
10:20 PM59 °FSunny.14 mph63%29.83 "Hg10 mi
9:50 PM59 °FSunny.12 mph63%29.83 "Hg10 mi
9:20 PM61 °FSunny.9 mph59%29.80 "Hg10 mi
8:50 PM61 °FSunny.10 mph59%29.80 "Hg10 mi
8:20 PM63 °FSunny.13 mph52%29.80 "Hg10 mi
7:50 PM63 °FPassing clouds.12 mph52%29.80 "HgN/A
7:20 PM64 °FPassing clouds.14 mph46%29.80 "HgN/A
6:50 PM66 °FPassing clouds.12 mph37%29.80 "HgN/A
6:20 PM68 °FPassing clouds.13 mph35%29.80 "HgN/A
5:50 PM68 °FSunny.13 mph35%29.80 "Hg10 mi
4:50 PM68 °FPassing clouds.12 mph33%29.80 "HgN/A
4:20 PM68 °FPassing clouds.8 mph35%29.77 "HgN/A
3:50 PM68 °FPassing clouds.12 mph33%29.77 "HgN/A
3:20 PM68 °FPassing clouds.8 mph38%29.80 "HgN/A
2:50 PM70 °FPassing clouds.9 mph38%29.77 "HgN/A
2:20 PM66 °FPassing clouds.8 mph37%29.80 "HgN/A
1:50 PM68 °FScattered clouds.13 mph43%29.80 "HgN/A
1:20 PM66 °FPassing clouds.12 mph46%29.80 "HgN/A
12:50 PM64 °FScattered clouds.8 mph46%29.80 "HgN/A
12:20 PM64 °FSunny.7 mph46%29.80 "Hg10 mi
11:50 AM64 °FScattered clouds.2 mph43%29.77 "HgN/A
11:20 AM63 °FScattered clouds.6 mph49%29.77 "HgN/A
10:50 AM63 °FScattered clouds.6 mph56%29.77 "HgN/A
10:20 AM61 °FScattered clouds.5 mph59%29.77 "HgN/A
9:50 AM61 °FSunny.3 mph59%29.77 "Hg10 mi
9:20 AM59 °FPassing clouds.6 mph63%29.77 "HgN/A
8:50 AM59 °FScattered clouds.6 mph63%29.77 "HgN/A
8:20 AM57 °FBroken clouds.5 mph67%29.74 "HgN/A
7:50 AM57 °FBroken clouds.3 mph77%29.74 "HgN/A
7:20 AM55 °FBroken clouds.3 mph88%29.74 "HgN/A
Weather by CustomWeather, © 2016

See weather overviewHow to use our weather pages